QPF
0.02 0.02 0.01 0.02 0.02 0.02 0.03 0.02 0.02 0.02 0.01 0.01 0.01 0.01 0.02 0.01 0.01 0.01 0.00 0.00 0.01 0.01 0.02 0.01 0.02 0.01 0.01 0.01 0.01 0.01 0.01 0.01 0.01 0.00 0.00 0.01 0.01 0.01 0.01 0.01 0.01 0.01 0.00
0.01 0.02 0.01 0.01 0.01 0.02 0.03 0.02 0.02 0.02 0.03 0.02 0.02 0.01 0.01 0.01 0.01 0.01 0.01 0.01 0.01 0.01 0.01 0.01 0.02 0.01 0.00 0.01 0.01 0.01 0.01 0.00 0.00 0.00 0.00 0.00 0.00 0.01 0.00 0.00 0.01 0.01 0.01
0.00 0.01 0.01 0.01 0.01 0.01 0.02 0.01 0.01 0.02 0.02 0.02 0.02 0.02 0.01 0.01 0.01 0.01 0.01 0.01 0.01 0.02 0.02 0.02 0.01 0.01 0.00 0.00 0.00 0.00 0.00 0.00 0.00 0.00 0.01 0.01 0.01 0.00 0.01 0.00 0.00 0.01 0.01
0.01 0.02 0.02 0.02 0.02 0.02 0.02 0.01 0.01 0.01 0.02 0.02 0.02 0.02 0.01 0.02 0.01 0.01 0.01 0.01 0.02 0.02 0.02 0.01 0.01 0.01 0.00 0.00 0.00 0.00 0.00 0.00 0.00 0.00 0.02 0.01 0.01 0.00 0.01 0.00 0.00 0.01 0.01
0.02 0.02 0.03 0.03 0.02 0.01 0.01 0.02 0.01 0.02 0.02 0.02 0.02 0.02 0.02 0.02 0.01 0.01 0.01 0.02 0.02 0.02 0.02 0.01 0.01 0.01 0.00 0.00 0.01 0.00 0.00 0.00 0.00 0.01 0.01 0.01 0.01 0.01 0.01 0.01 0.01 0.01 0.00
0.01 0.03 0.03 0.03 0.03 0.02 0.01 0.02 0.02 0.02 0.02 0.02 0.02 0.02 0.02 0.02 0.01 0.01 0.02 0.02 0.02 0.02 0.01 0.01 0.01 0.01 0.01 0.01 0.01 0.01 0.01 0.00 0.00 0.00 0.00 0.01 0.01 0.01 0.01 0.01 0.00 0.00 0.00
0.02 0.03 0.04 0.04 0.04 0.02 0.02 0.02 0.02 0.03 0.04 0.04 0.04 0.03 0.03 0.03 0.02 0.01 0.01 0.01 0.01 0.01 0.01 0.01 0.01 0.01 0.01 0.01 0.01 0.01 0.01 0.00 0.00 0.01 0.00 0.00 0.00 0.01 0.01 0.00 0.00 0.00 0.00
0.03 0.03 0.03 0.05 0.04 0.01 0.01 0.03 0.03 0.04 0.03 0.03 0.03 0.04 0.04 0.03 0.02 0.02 0.02 0.01 0.01 0.01 0.01 0.01 0.01 0.02 0.02 0.01 0.01 0.01 0.01 0.01 0.00 0.00 0.01 0.01 0.01 0.00 0.00 0.00 0.00 0.00 0.00
0.03 0.03 0.04 0.05 0.05 0.02 0.01 0.01 0.02 0.03 0.03 0.03 0.02 0.02 0.03 0.03 0.03 0.03 0.02 0.02 0.01 0.01 0.01 0.01 0.01 0.01 0.01 0.01 0.01 0.01 0.01 0.00 0.00 0.00 0.01 0.01 0.01 0.01 0.00 0.00 0.00 0.00 0.00
0.03 0.04 0.04 0.05 0.07 0.05 0.02 0.02 0.03 0.02 0.02 0.02 0.02 0.01 0.01 0.02 0.02 0.02 0.02 0.02 0.02 0.01 0.01 0.01 0.01 0.01 0.01 0.01 0.01 0.01 0.00 0.00 0.00 0.00 0.00 0.01 0.01 0.01 0.01 0.00 0.00 0.00 0.00
0.03 0.04 0.05 0.05 0.05 0.10 0.05 0.02 0.02 0.03 0.03 0.02 0.02 0.01 0.02 0.04 0.05 0.04 0.02 0.01 0.01 0.02 0.01 0.01 0.01 0.02 0.01 0.01 0.01 0.01 0.01 0.00 0.00 0.01 0.01 0.00 0.00 0.01 0.01 0.01 0.01 0.01 0.01
0.03 0.03 0.04 0.05 0.05 0.13 0.11 0.04 0.04 0.05 0.05 0.04 0.03 0.02 0.03 0.06 0.07 0.05 0.04 0.02 0.01 0.01 0.01 0.01 0.01 0.03 0.02 0.02 0.02 0.01 0.01 0.01 0.02 0.01 0.01 0.01 0.01 0.01 0.01 0.01 0.01 0.01 0.01
0.04 0.03 0.04 0.04 0.04 0.07 0.14 0.08 0.05 0.05 0.05 0.05 0.05 0.06 0.05 0.08 0.08 0.07 0.08 0.05 0.03 0.02 0.02 0.02 0.02 0.03 0.05 0.05 0.05 0.03 0.02 0.02 0.03 0.02 0.01 0.01 0.01 0.01 0.01 0.01 0.01 0.01 0.01
0.01 0.01 0.02 0.02 0.03 0.04 0.07 0.10 0.07 0.06 0.05 0.06 0.06 0.05 0.06 0.07 0.07 0.07 0.07 0.07 0.06 0.04 0.04 0.05 0.05 0.04 0.06 0.06 0.05 0.04 0.03 0.04 0.03 0.03 0.02 0.02 0.02 0.02 0.02 0.02 0.01 0.01 0.01
0.01 0.01 0.01 0.01 0.02 0.02 0.03 0.06 0.07 0.06 0.05 0.05 0.07 0.07 0.07 0.06 0.05 0.05 0.06 0.07 0.08 0.08 0.06 0.06 0.05 0.04 0.05 0.05 0.05 0.03 0.03 0.03 0.02 0.03 0.03 0.02 0.01 0.01 0.02 0.02 0.02 0.02 0.01
0.01 0.01 0.01 0.00 0.01 0.01 0.02 0.03 0.05 0.06 0.05 0.04 0.04 0.05 0.05 0.05 0.04 0.02 0.03 0.04 0.07 0.07 0.06 0.07 0.07 0.07 0.06 0.05 0.05 0.03 0.02 0.02 0.01 0.01 0.02 0.02 0.02 0.01 0.01 0.01 0.02 0.02 0.02
0.01 0.00 0.00 0.00 0.00 0.00 0.01 0.01 0.03 0.04 0.06 0.06 0.05 0.05 0.04 0.05 0.04 0.03 0.03 0.03 0.05 0.08 0.09 0.08 0.09 0.06 0.05 0.04 0.04 0.04 0.04 0.03 0.03 0.02 0.02 0.02 0.02 0.02 0.01 0.01 0.01 0.02 0.02
0.00 0.00 0.00 0.00 0.00 0.00 0.00 0.01 0.01 0.02 0.03 0.05 0.06 0.07 0.06 0.07 0.08 0.08 0.06 0.05 0.05 0.06 0.10 0.10 0.10 0.09 0.05 0.03 0.02 0.02 0.02 0.02 0.02 0.02 0.02 0.02 0.02 0.02 0.02 0.02 0.02 0.01 0.01
0.00 0.00 0.00 0.00 0.00 0.00 0.01 0.01 0.01 0.01 0.01 0.02 0.03 0.05 0.05 0.05 0.07 0.11 0.09 0.08 0.06 0.06 0.06 0.07 0.07 0.09 0.07 0.04 0.04 0.03 0.02 0.02 0.02 0.02 0.02 0.02 0.02 0.02 0.02 0.02 0.02 0.02 0.02
0.00 0.00 0.00 0.00 0.00 0.00 0.01 0.01 0.01 0.01 0.01 0.01 0.02 0.02 0.03 0.04 0.05 0.08 0.11 0.11 0.09 0.07 0.06 0.05 0.05 0.05 0.07 0.06 0.05 0.05 0.04 0.03 0.03 0.02 0.02 0.02 0.02 0.01 0.01 0.02 0.02 0.02 0.02
0.00 0.00 0.00 0.00 0.00 0.00 0.01 0.01 0.01 0.01 0.01 0.01 0.01 0.01 0.01 0.02 0.04 0.05 0.06 0.09 0.11 0.10 0.08 0.07 0.06 0.05 0.05 0.06 0.07 0.05 0.03 0.02 0.02 0.02 0.02 0.03 0.04 0.04 0.03 0.02 0.02 0.02 0.02
0.00 0.00 0.00 0.00 0.00 0.00 0.00 0.00 0.00 0.00 0.00 0.00 0.00 0.00 0.00 0.00 0.01 0.02 0.05 0.06 0.07 0.09 0.09 0.08 0.06 0.06 0.06 0.06 0.05 0.05 0.04 0.03 0.03 0.03 0.03 0.03 0.03 0.04 0.03 0.03 0.03 0.03 0.03
0.00 0.00 0.00 0.00 0.00 0.00 0.00 0.00 0.00 0.00 0.00 0.00 0.00 0.00 0.00 0.00 0.00 0.00 0.00 0.02 0.03 0.06 0.09 0.11 0.10 0.09 0.09 0.09 0.07 0.07 0.06 0.04 0.04 0.04 0.03 0.03 0.03 0.03 0.03 0.04 0.04 0.05 0.04
0.00 0.00 0.00 0.00 0.00 0.00 0.00 0.00 0.00 0.00 0.00 0.00 0.00 0.00 0.00 0.00 0.00 0.00 0.00 0.01 0.01 0.02 0.05 0.08 0.12 0.12 0.11 0.09 0.08 0.07 0.07 0.06 0.07 0.05 0.04 0.04 0.04 0.04 0.04 0.04 0.05 0.05 0.05
0.00 0.00 0.00 0.00 0.00 0.00 0.00 0.00 0.00 0.00 0.00 0.00 0.00 0.00 0.00 0.00 0.00 0.00 0.01 0.01 0.01 0.01 0.02 0.02 0.05 0.08 0.10 0.09 0.08 0.07 0.06 0.06 0.05 0.05 0.04 0.03 0.03 0.04 0.04 0.05 0.06 0.06 0.06
0.00 0.00 0.00 0.00 0.00 0.00 0.00 0.00 0.00 0.00 0.00 0.00 0.00 0.00 0.00 0.00 0.00 0.00 0.00 0.00 0.00 0.01 0.01 0.01 0.01 0.02 0.04 0.06 0.06 0.05 0.05 0.04 0.04 0.04 0.05 0.04 0.04 0.04 0.04 0.04 0.05 0.05 0.06
MSLP
1015.09 1014.76 1014.49 1014.38 1014.49 1014.76 1015.12 1015.48 1015.74 1015.86 1015.82 1015.69 1015.54 1015.45 1015.47 1015.60 1015.83 1016.10 1016.34 1016.50 1016.56 1016.53 1016.45 1016.36 1016.33 1016.36 1016.45 1016.58 1016.71 1016.80 1016.82 1016.79 1016.71 1016.62 1016.55 1016.53 1016.55 1016.59 1016.63 1016.65 1016.63 1016.57 1016.51
1015.07 1014.76 1014.53 1014.47 1014.61 1014.90 1015.27 1015.61 1015.85 1015.93 1015.88 1015.75 1015.61 1015.54 1015.58 1015.74 1015.98 1016.26 1016.49 1016.64 1016.69 1016.65 1016.58 1016.51 1016.49 1016.54 1016.65 1016.78 1016.90 1016.97 1016.98 1016.93 1016.84 1016.76 1016.70 1016.70 1016.74 1016.80 1016.85 1016.88 1016.86 1016.80 1016.72
1015.08 1014.78 1014.57 1014.54 1014.70 1015.01 1015.37 1015.70 1015.92 1016.00 1015.96 1015.85 1015.74 1015.70 1015.76 1015.93 1016.17 1016.42 1016.62 1016.73 1016.76 1016.71 1016.64 1016.59 1016.60 1016.67 1016.79 1016.93 1017.04 1017.09 1017.07 1016.99 1016.90 1016.81 1016.78 1016.80 1016.86 1016.95 1017.03 1017.07 1017.06 1017.00 1016.92
1015.13 1014.83 1014.65 1014.64 1014.81 1015.12 1015.47 1015.78 1016.00 1016.08 1016.05 1015.97 1015.90 1015.90 1015.98 1016.15 1016.37 1016.57 1016.72 1016.78 1016.77 1016.71 1016.64 1016.61 1016.65 1016.75 1016.89 1017.03 1017.13 1017.16 1017.11 1017.01 1016.90 1016.81 1016.79 1016.83 1016.92 1017.04 1017.14 1017.21 1017.21 1017.17 1017.10
1015.23 1014.94 1014.78 1014.79 1014.98 1015.27 1015.60 1015.89 1016.08 1016.16 1016.15 1016.09 1016.06 1016.08 1016.18 1016.34 1016.52 1016.67 1016.76 1016.77 1016.72 1016.64 1016.59 1016.59 1016.67 1016.80 1016.97 1017.11 1017.20 1017.20 1017.13 1017.01 1016.88 1016.78 1016.76 1016.81 1016.92 1017.05 1017.18 1017.27 1017.30 1017.28 1017.23
1015.37 1015.11 1014.98 1015.03 1015.22 1015.50 1015.79 1016.04 1016.18 1016.23 1016.21 1016.17 1016.16 1016.20 1016.30 1016.44 1016.58 1016.68 1016.71 1016.68 1016.60 1016.53 1016.49 1016.53 1016.64 1016.82 1017.01 1017.16 1017.25 1017.23 1017.14 1016.99 1016.84 1016.73 1016.70 1016.75 1016.87 1017.02 1017.16 1017.27 1017.32 1017.33 1017.31
1015.55 1015.34 1015.27 1015.35 1015.55 1015.81 1016.05 1016.22 1016.30 1016.29 1016.24 1016.18 1016.16 1016.20 1016.30 1016.42 1016.52 1016.58 1016.57 1016.51 1016.42 1016.35 1016.34 1016.42 1016.58 1016.79 1017.01 1017.18 1017.26 1017.24 1017.12 1016.96 1016.79 1016.68 1016.64 1016.68 1016.80 1016.94 1017.09 1017.21 1017.28 1017.31 1017.33
1015.75 1015.62 1015.63 1015.76 1015.97 1016.18 1016.35 1016.44 1016.42 1016.34 1016.22 1016.12 1016.08 1016.10 1016.17 1016.27 1016.35 1016.37 1016.34 1016.26 1016.17 1016.12 1016.14 1016.26 1016.46 1016.70 1016.94 1017.12 1017.20 1017.17 1017.06 1016.89 1016.72 1016.60 1016.55 1016.59 1016.69 1016.84 1016.98 1017.10 1017.19 1017.25 1017.29
1015.98 1015.95 1016.04 1016.22 1016.43 1016.60 1016.69 1016.67 1016.55 1016.36 1016.17 1016.01 1015.92 1015.92 1015.97 1016.04 1016.09 1016.09 1016.04 1015.95 1015.87 1015.84 1015.89 1016.03 1016.25 1016.51 1016.76 1016.95 1017.03 1017.01 1016.90 1016.73 1016.57 1016.46 1016.42 1016.45 1016.56 1016.69 1016.83 1016.95 1017.05 1017.12 1017.20
1016.23 1016.30 1016.47 1016.69 1016.90 1017.02 1017.03 1016.90 1016.67 1016.39 1016.11 1015.89 1015.76 1015.71 1015.73 1015.78 1015.80 1015.79 1015.72 1015.63 1015.55 1015.52 1015.58 1015.73 1015.95 1016.21 1016.45 1016.63 1016.72 1016.70 1016.60 1016.46 1016.32 1016.23 1016.20 1016.25 1016.35 1016.49 1016.63 1016.75 1016.85 1016.95 1017.04
1016.50 1016.66 1016.90 1017.15 1017.33 1017.41 1017.33 1017.11 1016.79 1016.42 1016.08 1015.81 1015.63 1015.55 1015.54 1015.56 1015.56 1015.52 1015.43 1015.33 1015.24 1015.20 1015.24 1015.37 1015.57 1015.81 1016.02 1016.18 1016.25 1016.24 1016.15 1016.03 1015.92 1015.86 1015.87 1015.94 1016.06 1016.20 1016.35 1016.48 1016.60 1016.70 1016.82
1016.79 1017.02 1017.29 1017.54 1017.70 1017.72 1017.58 1017.29 1016.91 1016.49 1016.10 1015.80 1015.60 1015.49 1015.45 1015.43 1015.40 1015.33 1015.21 1015.08 1014.96 1014.90 1014.90 1014.99 1015.14 1015.33 1015.49 1015.61 1015.65 1015.63 1015.55 1015.46 1015.38 1015.36 1015.39 1015.49 1015.64 1015.81 1015.98 1016.13 1016.26 1016.38 1016.51
1017.09 1017.35 1017.63 1017.86 1017.98 1017.95 1017.76 1017.43 1017.02 1016.59 1016.19 1015.88 1015.67 1015.54 1015.47 1015.42 1015.35 1015.24 1015.09 1014.92 1014.76 1014.65 1014.61 1014.63 1014.71 1014.82 1014.92 1014.98 1014.98 1014.93 1014.85 1014.77 1014.71 1014.72 1014.79 1014.92 1015.09 1015.29 1015.49 1015.67 1015.83 1015.97 1016.11
1017.38 1017.64 1017.90 1018.09 1018.16 1018.09 1017.87 1017.54 1017.13 1016.72 1016.35 1016.05 1015.84 1015.70 1015.60 1015.51 1015.40 1015.25 1015.05 1014.84 1014.64 1014.48 1014.37 1014.33 1014.33 1014.35 1014.37 1014.36 1014.30 1014.21 1014.11 1014.02 1013.97 1013.99 1014.08 1014.23 1014.43 1014.66 1014.88 1015.09 1015.29 1015.45 1015.61
1017.65 1017.87 1018.08 1018.21 1018.24 1018.14 1017.92 1017.61 1017.25 1016.88 1016.55 1016.28 1016.08 1015.93 1015.80 1015.68 1015.52 1015.32 1015.09 1014.84 1014.60 1014.39 1014.23 1014.12 1014.04 1013.97 1013.90 1013.81 1013.69 1013.55 1013.41 1013.30 1013.24 1013.25 1013.33 1013.48 1013.69 1013.93 1014.18 1014.42 1014.64 1014.84 1015.02
1017.85 1018.03 1018.18 1018.25 1018.24 1018.13 1017.93 1017.66 1017.36 1017.05 1016.77 1016.54 1016.34 1016.18 1016.02 1015.85 1015.65 1015.42 1015.16 1014.89 1014.63 1014.39 1014.18 1014.01 1013.87 1013.73 1013.57 1013.41 1013.22 1013.02 1012.83 1012.68 1012.58 1012.56 1012.61 1012.74 1012.93 1013.15 1013.40 1013.65 1013.90 1014.13 1014.33
1017.98 1018.11 1018.21 1018.24 1018.21 1018.10 1017.93 1017.72 1017.48 1017.24 1017.00 1016.79 1016.59 1016.40 1016.21 1016.00 1015.77 1015.51 1015.24 1014.96 1014.70 1014.45 1014.22 1014.01 1013.81 1013.61 1013.39 1013.16 1012.91 1012.65 1012.42 1012.21 1012.07 1011.99 1011.99 1012.06 1012.19 1012.38 1012.60 1012.85 1013.09 1013.33 1013.56
1018.03 1018.13 1018.19 1018.20 1018.16 1018.08 1017.95 1017.80 1017.62 1017.43 1017.22 1017.01 1016.80 1016.58 1016.34 1016.10 1015.84 1015.57 1015.31 1015.04 1014.79 1014.55 1014.32 1014.08 1013.85 1013.60 1013.33 1013.04 1012.75 1012.45 1012.17 1011.92 1011.72 1011.58 1011.50 1011.49 1011.55 1011.66 1011.82 1012.02 1012.25 1012.49 1012.72
1018.01 1018.10 1018.15 1018.15 1018.13 1018.08 1018.01 1017.91 1017.78 1017.62 1017.43 1017.21 1016.97 1016.70 1016.43 1016.15 1015.88 1015.61 1015.36 1015.13 1014.90 1014.67 1014.44 1014.20 1013.94 1013.65 1013.35 1013.03 1012.70 1012.37 1012.07 1011.78 1011.53 1011.32 1011.17 1011.06 1011.01 1011.02 1011.09 1011.22 1011.39 1011.60 1011.83
1017.95 1018.05 1018.10 1018.13 1018.14 1018.13 1018.10 1018.05 1017.96 1017.82 1017.63 1017.39 1017.11 1016.80 1016.49 1016.18 1015.90 1015.65 1015.42 1015.21 1015.01 1014.80 1014.57 1014.32 1014.03 1013.72 1013.38 1013.04 1012.70 1012.37 1012.05 1011.74 1011.46 1011.19 1010.96 1010.75 1010.59 1010.48 1010.43 1010.46 1010.55 1010.70 1010.90
1017.87 1017.99 1018.08 1018.13 1018.18 1018.21 1018.23 1018.21 1018.15 1018.02 1017.82 1017.55 1017.24 1016.90 1016.55 1016.23 1015.94 1015.70 1015.49 1015.31 1015.12 1014.92 1014.68 1014.40 1014.09 1013.74 1013.38 1013.02 1012.68 1012.35 1012.04 1011.74 1011.44 1011.13 1010.82 1010.53 1010.25 1010.02 1009.85 1009.76 1009.75 1009.83 1009.98
1017.79 1017.95 1018.06 1018.15 1018.22 1018.29 1018.34 1018.35 1018.31 1018.19 1017.99 1017.71 1017.37 1017.00 1016.64 1016.31 1016.03 1015.79 1015.60 1015.42 1015.24 1015.02 1014.75 1014.44 1014.08 1013.69 1013.31 1012.94 1012.59 1012.28 1011.99 1011.70 1011.40 1011.07 1010.72 1010.34 1009.97 1009.63 1009.34 1009.14 1009.04 1009.03 1009.13
1017.73 1017.91 1018.04 1018.14 1018.24 1018.33 1018.40 1018.44 1018.42 1018.31 1018.12 1017.84 1017.49 1017.13 1016.76 1016.43 1016.15 1015.92 1015.73 1015.54 1015.34 1015.09 1014.77 1014.41 1013.99 1013.57 1013.14 1012.76 1012.41 1012.11 1011.84 1011.57 1011.28 1010.95 1010.57 1010.15 1009.72 1009.29 1008.92 1008.62 1008.43 1008.36 1008.39
1017.66 1017.84 1017.97 1018.07 1018.17 1018.28 1018.37 1018.43 1018.43 1018.35 1018.18 1017.92 1017.60 1017.25 1016.90 1016.58 1016.30 1016.07 1015.86 1015.65 1015.41 1015.11 1014.75 1014.32 1013.85 1013.37 1012.92 1012.50 1012.15 1011.86 1011.60 1011.35 1011.08 1010.75 1010.37 1009.93 1009.46 1008.99 1008.57 1008.23 1007.99 1007.87 1007.86
1017.55 1017.71 1017.82 1017.91 1018.00 1018.10 1018.21 1018.29 1018.33 1018.29 1018.16 1017.94 1017.66 1017.34 1017.01 1016.70 1016.43 1016.19 1015.96 1015.72 1015.44 1015.09 1014.68 1014.20 1013.68 1013.16 1012.66 1012.23 1011.86 1011.56 1011.30 1011.05 1010.79 1010.47 1010.09 1009.66 1009.20 1008.73 1008.31 1007.97 1007.73 1007.60 1007.58
1017.37 1017.49 1017.57 1017.62 1017.69 1017.79 1017.91 1018.02 1018.09 1018.10 1018.03 1017.88 1017.65 1017.37 1017.07 1016.78 1016.50 1016.25 1016.00 1015.73 1015.41 1015.03 1014.58 1014.07 1013.53 1012.98 1012.46 1012.00 1011.60 1011.28 1011.00 1010.74 1010.46 1010.15 1009.78 1009.37 1008.95 1008.53 1008.16 1007.86 1007.67 1007.58 1007.59
Thickness
5752 5752 5751 5751 5750 5750 5749 5749 5748 5746 5745 5745 5744 5743 5742 5741 5740 5740 5739 5738 5738 5738 5737 5736 5736 5735 5735 5734 5733 5733 5732 5732 5731 5731 5731 5731 5730 5730 5730 5730 5730 5729 5728
5751 5750 5748 5748 5747 5747 5746 5745 5744 5743 5742 5742 5741 5740 5739 5739 5738 5737 5737 5736 5736 5735 5735 5734 5733 5732 5732 5731 5730 5730 5729 5729 5728 5728 5728 5727 5727 5727 5727 5727 5727 5726 5725
5748 5746 5745 5744 5744 5743 5742 5742 5741 5740 5739 5738 5738 5737 5737 5736 5735 5735 5734 5733 5733 5732 5732 5731 5730 5730 5729 5728 5727 5727 5726 5726 5726 5726 5725 5725 5725 5724 5724 5723 5723 5722 5722
5744 5742 5741 5740 5740 5739 5739 5738 5737 5737 5736 5735 5735 5734 5734 5733 5732 5732 5731 5731 5730 5730 5729 5728 5728 5727 5726 5725 5725 5724 5724 5724 5724 5724 5724 5723 5722 5721 5721 5720 5719 5719 5718
5739 5737 5736 5736 5735 5735 5734 5734 5734 5733 5732 5732 5731 5731 5730 5730 5729 5729 5728 5727 5727 5726 5726 5725 5724 5724 5723 5722 5722 5721 5721 5721 5721 5721 5722 5721 5720 5719 5718 5717 5716 5715 5715
5733 5732 5730 5731 5731 5730 5730 5730 5729 5729 5728 5728 5727 5727 5727 5726 5726 5725 5725 5724 5724 5723 5722 5722 5721 5721 5720 5719 5719 5718 5718 5718 5718 5718 5719 5718 5717 5716 5714 5713 5712 5712 5711
5726 5726 5725 5726 5726 5725 5725 5725 5725 5725 5724 5724 5724 5723 5723 5722 5722 5722 5721 5721 5720 5720 5719 5719 5718 5718 5717 5716 5716 5715 5715 5715 5716 5716 5716 5715 5713 5712 5711 5710 5709 5708 5707
5721 5720 5719 5720 5720 5720 5720 5720 5720 5720 5720 5720 5720 5719 5719 5719 5718 5718 5717 5717 5716 5716 5715 5715 5714 5714 5713 5713 5713 5712 5712 5712 5713 5713 5713 5712 5710 5709 5708 5706 5705 5704 5704
5714 5714 5714 5714 5715 5715 5715 5715 5716 5716 5716 5715 5715 5715 5715 5714 5714 5714 5713 5713 5713 5712 5711 5711 5710 5710 5710 5709 5709 5709 5709 5709 5709 5709 5709 5709 5707 5706 5704 5703 5702 5701 5700
5706 5707 5708 5708 5709 5710 5710 5710 5710 5711 5711 5711 5711 5711 5711 5710 5710 5710 5709 5709 5708 5708 5707 5707 5706 5706 5706 5706 5705 5705 5705 5705 5705 5706 5706 5705 5704 5703 5701 5699 5698 5697 5697
5697 5699 5701 5702 5703 5704 5704 5705 5705 5706 5706 5706 5706 5706 5706 5706 5706 5706 5705 5705 5704 5704 5703 5703 5703 5702 5702 5702 5702 5702 5702 5702 5702 5703 5702 5702 5700 5699 5697 5696 5695 5694 5693
5688 5691 5694 5695 5696 5697 5698 5699 5700 5700 5701 5701 5701 5701 5701 5701 5701 5701 5701 5701 5700 5699 5699 5699 5699 5698 5698 5698 5698 5698 5698 5699 5699 5700 5699 5698 5697 5695 5694 5692 5691 5690 5689
5681 5683 5685 5688 5689 5690 5691 5692 5693 5694 5694 5695 5696 5696 5696 5696 5696 5696 5696 5695 5695 5695 5694 5694 5694 5694 5694 5695 5695 5695 5695 5696 5697 5696 5696 5695 5694 5692 5690 5689 5687 5686 5685
5674 5676 5678 5680 5682 5683 5684 5685 5686 5687 5688 5689 5690 5690 5690 5690 5690 5690 5690 5690 5690 5690 5690 5689 5689 5690 5690 5691 5691 5692 5692 5692 5693 5692 5692 5691 5690 5689 5687 5685 5683 5682 5681
5667 5669 5671 5673 5674 5676 5677 5677 5679 5679 5680 5682 5682 5683 5683 5683 5683 5684 5684 5684 5684 5684 5684 5684 5684 5685 5685 5686 5687 5687 5687 5688 5688 5688 5687 5686 5685 5684 5683 5681 5679 5678 5677
5660 5662 5664 5665 5667 5668 5669 5670 5671 5672 5673 5674 5675 5676 5676 5677 5677 5677 5678 5678 5678 5678 5678 5678 5679 5679 5679 5680 5681 5682 5682 5682 5682 5682 5681 5681 5680 5679 5677 5676 5674 5673 5672
5654 5656 5657 5658 5660 5661 5662 5663 5664 5665 5666 5667 5668 5669 5669 5670 5670 5670 5670 5671 5671 5671 5671 5671 5672 5672 5673 5673 5674 5675 5676 5676 5676 5676 5675 5674 5674 5673 5672 5670 5669 5668 5667
5648 5649 5650 5652 5652 5653 5655 5656 5657 5658 5659 5659 5660 5661 5662 5662 5662 5663 5663 5663 5663 5663 5663 5663 5663 5663 5664 5664 5665 5666 5667 5668 5668 5669 5668 5668 5667 5666 5665 5664 5663 5662 5661
5642 5642 5643 5644 5645 5646 5647 5648 5650 5651 5652 5652 5653 5653 5654 5654 5654 5654 5654 5654 5654 5654 5654 5654 5654 5654 5654 5655 5655 5657 5658 5659 5660 5661 5660 5660 5659 5658 5657 5656 5656 5655 5654
5636 5637 5637 5638 5638 5639 5640 5641 5642 5643 5643 5644 5645 5645 5645 5645 5645 5645 5645 5645 5645 5645 5645 5645 5644 5645 5645 5645 5647 5648 5649 5650 5651 5652 5652 5651 5651 5649 5648 5648 5648 5647 5646
5630 5630 5630 5630 5631 5631 5631 5631 5632 5633 5634 5635 5636 5636 5636 5636 5636 5636 5636 5636 5636 5635 5635 5635 5635 5634 5635 5635 5634 5636 5639 5641 5642 5643 5642 5642 5641 5640 5639 5639 5638 5638 5638
5623 5623 5623 5623 5624 5624 5624 5624 5624 5625 5626 5626 5627 5627 5627 5628 5627 5627 5626 5626 5626 5626 5626 5626 5625 5624 5625 5624 5622 5622 5624 5628 5630 5633 5631 5631 5630 5630 5629 5629 5629 5629 5629
5617 5617 5617 5616 5617 5617 5617 5617 5617 5618 5618 5618 5618 5618 5619 5619 5618 5617 5616 5616 5616 5616 5617 5617 5616 5615 5614 5614 5613 5611 5610 5613 5616 5620 5621 5620 5619 5618 5618 5619 5619 5620 5619
5611 5611 5610 5610 5610 5610 5610 5610 5609 5609 5609 5610 5610 5610 5611 5610 5610 5608 5608 5607 5607 5607 5607 5607 5608 5607 5605 5604 5604 5603 5603 5604 5602 5604 5607 5607 5608 5607 5607 5608 5608 5607 5608
5606 5604 5604 5604 5603 5603 5603 5603 5602 5602 5602 5602 5603 5603 5603 5602 5601 5600 5599 5599 5599 5598 5598 5598 5598 5598 5597 5595 5594 5594 5593 5593 5593 5591 5593 5594 5595 5596 5596 5596 5596 5596 5597
5600 5598 5598 5597 5597 5597 5596 5596 5595 5595 5595 5595 5594 5594 5594 5593 5593 5591 5590 5590 5589 5589 5589 5589 5589 5589 5588 5587 5586 5585 5584 5583 5582 5582 5582 5583 5583 5584 5584 5585 5586 5586 5586